sat.trackr.live / text

‹ back to catalog

STARLINK-5666

NORAD 55349 · 2023-013U

PAYLOAD ACTIVE UNKNOWN

§ Identity

Operator
Country
US
Launch date
2023-01-26
Launch site
AFETR
Launch vehicle
Mass (kg)
RCS (m²)

Purposes: comms

External: N2YO · Heavens-Above · Gunter

§ Orbital elements

Epoch: 2026-05-24T17:24:05.777568Z

Period
94.29 min
Inclination
42.9985°
Eccentricity
0.0000344
Mean motion
15.27208023 rev/d
Perigee alt
483.9 km
Apogee alt
484.4 km
Semi-major
6,862.3 km
B*
1.7992e-3
RAAN
233.8550°
Arg perigee
160.2249°
Mean anomaly
199.8616°
Rev number
18,330

§ Raw data

STARLINK-56661 55349U 23013U   26144.72506687  .00049017  00000+0  17992-2 0  99932 55349  42.9985 233.8550 0000344 160.2249 199.8616 15.27208023183301

JSON: /api/v1/satellites/55349 · /tle

For live sub-satellite position, see the globe view (requires WebGL).

§ Visibility from observer

Set your observer location to see the next 7 days of passes ≥ 10°. The values pass through the URL so the page stays shareable.

No JS? Fill the form by hand. The geolocation button needs JavaScript.